FW6905 Weather Reports


Display with metric or nautical units.
time (UTC)temp
F
wind
direction
speed
MPH
gust
MPH
rain 1hr
in
rain 24hr
in
rain mn
in
humidity
%
barometer
mb
20260902150006 85 192 2.0 2.0 0.00 0.00 0.00 45 1018.8
20260902145506 86 187 0.0 2.0 0.00 0.00 0.00 46 1018.8
20260902145006 86 223 2.0 2.0 0.00 0.00 0.00 42 1018.8
20260902144507 87 237 1.0 3.0 0.00 0.00 0.00 37 1018.8
20260902144007 87 227 2.0 3.0 0.00 0.00 0.00 36 1019.8
20260902142507 87 226 1.0 3.0 0.00 0.00 0.00 38 1019.8
20260902142006 87 206 2.0 4.0 0.00 0.00 0.00 37 1019.8
20260902140507 87 157 2.0 4.0 0.00 0.00 0.00 35 1019.8
20260902140006 86 37 3.0 4.0 0.00 0.00 0.00 36 1019.8
20260902135507 86 61 2.0 4.0 0.00 0.00 0.00 36 1018.8
20260902135006 86 91 2.0 4.0 0.00 0.00 0.00 38 1018.8
20260902134006 86 72 1.0 4.0 0.00 0.00 0.00 38 1018.8
20260902133507 86 71 2.0 4.0 0.00 0.00 0.00 36 1018.8
20260902133007 86 87 3.0 4.0 0.00 0.00 0.00 35 1018.8
20260902132506 87 138 2.0 3.0 0.00 0.00 0.00 36 1018.8
20260902131507 87 181 2.0 3.0 0.00 0.00 0.00 37 1018.8
20260902131006 87 216 1.0 3.0 0.00 0.00 0.00 33 1018.8
20260902130506 87 358 2.0 4.0 0.00 0.00 0.00 33 1018.8
20260902130007 87 45 2.0 4.0 0.00 0.00 0.00 33 1018.8
20260902125006 88 60 2.0 8.0 0.00 0.00 0.00 33 1018.8
20260902124506 88 65 5.0 8.0 0.00 0.00 0.00 34 1018.8
20260902124007 89 47 2.0 8.0 0.00 0.00 0.00 34 1019.8
20260902123506 89 60 2.0 9.0 0.00 0.00 0.00 33 1019.8
20260902123007 88 76 4.0 9.0 0.00 0.00 0.00 34 1019.8
20260902121506 88 58 5.0 8.0 0.00 0.00 0.00 34 1019.8
20260902121006 88 47 6.0 9.0 0.00 0.00 0.00 33 1019.8
20260902120506 88 40 6.0 9.0 0.00 0.00 0.00 34 1019.8
20260902120006 88 55 2.0 9.0 0.00 0.00 0.00 34 1019.8
20260902115506 88 65 4.0 9.0 0.00 0.00 0.00 33 1019.8
20260902114506 87 67 3.0 9.0 0.00 0.00 0.00 34 1019.8
20260902113506 87 62 3.0 9.0 0.00 0.00 0.00 35 1020.8
20260902113006 87 60 5.0 9.0 0.00 0.00 0.00 35 1020.8
20260902112506 87 57 4.0 9.0 0.00 0.00 0.00 34 1020.8
20260902112006 86 40 4.0 10.0 0.00 0.00 0.00 34 1020.8
20260902111006 86 51 5.0 12.0 0.00 0.00 0.00 35 1020.8
20260902110506 86 51 8.0 12.0 0.00 0.00 0.00 35 1020.8
20260902110008 86 47 6.0 10.0 0.00 0.00 0.00 34 1020.8
20260902105506 86 47 7.0 10.0 0.00 0.00 0.00 34 1020.8
20260902105006 85 52 4.0 11.0 0.00 0.00 0.00 35 1020.8
20260902104506 85 48 5.0 11.0 0.00 0.00 0.00 34 1020.8
20260902103006 85 57 8.0 11.0 0.00 0.00 0.00 35 1021.8
20260902102506 85 50 9.0 12.0 0.00 0.00 0.00 35 1021.8
20260902102006 85 54 6.0 12.0 0.00 0.00 0.00 35 1021.8
20260902101006 84 41 5.0 12.0 0.00 0.00 0.00 35 1021.8
20260902100506 84 41 7.0 12.0 0.00 0.00 0.00 35 1021.8
20260902100006 84 50 4.0 13.0 0.00 0.00 0.00 36 1021.8
20260902095506 84 50 6.0 13.0 0.00 0.00 0.00 36 1021.8
20260902095006 84 52 5.0 12.0 0.00 0.00 0.00 36 1021.8
20260902094006 83 51 4.0 12.0 0.00 0.00 0.00 36 1021.8
20260902093006 83 40 7.0 13.0 0.00 0.00 0.00 36 1021.8
20260902092506 83 57 8.0 12.0 0.00 0.00 0.00 36 1021.8
20260902092006 83 58 5.0 11.0 0.00 0.00 0.00 36 1021.8
20260902091506 83 49 3.0 11.0 0.00 0.00 0.00 36 1021.8
20260902091006 83 33 5.0 11.0 0.00 0.00 0.00 37 1021.8
20260902090506 82 29 4.0 11.0 0.00 0.00 0.00 37 1021.8
20260902090006 82 41 6.0 12.0 0.00 0.00 0.00 37 1021.8
20260902085506 82 42 4.0 12.0 0.00 0.00 0.00 37 1021.8
20260902085006 82 39 6.0 9.0 0.00 0.00 0.00 38 1021.8
20260902084506 82 38 2.0 9.0 0.00 0.00 0.00 38 1021.8
20260902084006 82 35 4.0 8.0 0.00 0.00 0.00 39 1021.8
20260902083506 81 2 2.0 12.0 0.00 0.00 0.00 38 1021.8
20260902083006 81 12 4.0 12.0 0.00 0.00 0.00 38 1021.8
20260902082506 80 24 4.0 12.0 0.00 0.00 0.00 39 1020.8
20260902082007 80 4 4.0 12.0 0.00 0.00 0.00 39 1020.8
20260902081506 80 6 2.0 11.0 0.00 0.00 0.00 41 1020.8
20260902081006 80 17 6.0 11.0 0.00 0.00 0.00 40 1021.8
20260902080506 79 16 6.0 10.0 0.00 0.00 0.00 40 1021.8
20260902080006 79 17 6.0 10.0 0.00 0.00 0.00 40 1021.8
20260902075506 79 21 4.0 15.0 0.00 0.00 0.00 40 1021.8
20260902075006 79 37 4.0 15.0 0.00 0.00 0.00 41 1021.8
20260902074506 78 35 5.0 15.0 0.00 0.00 0.00 41 1021.8
20260902073506 78 36 9.0 17.0 0.00 0.00 0.00 42 1021.8
20260902073006 78 49 8.0 15.0 0.00 0.00 0.00 43 1021.8
20260902072506 77 26 2.0 12.0 0.00 0.00 0.00 43 1021.8
20260902072006 77 8 6.0 12.0 0.00 0.00 0.00 43 1021.8
20260902071506 77 11 4.0 12.0 0.00 0.00 0.00 44 1021.8
20260902071006 77 28 2.0 12.0 0.00 0.00 0.00 45 1021.8
20260902070506 76 45 4.0 15.0 0.00 0.00 0.00 45 1021.8
20260902070007 76 43 9.0 17.0 0.00 0.00 0.00 44 1021.8
20260902064506 76 30 5.0 19.0 0.00 0.00 0.00 45 1021.8
20260902064006 76 27 13.0 18.0 0.00 0.00 0.00 44 1021.8
20260902063506 75 22 8.0 18.0 0.00 0.00 0.00 45 1021.8
20260902063006 75 10 9.0 20.0 0.00 0.00 0.00 45 1021.8
20260902062506 75 26 11.0 20.0 0.00 0.00 0.00 45 1021.8
20260902062006 75 30 9.0 15.0 0.00 0.00 0.00 46 1021.8
20260902061006 74 54 9.0 14.0 0.00 0.00 0.00 46 1021.8
20260902060506 74 51 4.0 13.0 0.00 0.00 0.00 46 1021.8
20260902060006 74 51 6.0 13.0 0.00 0.00 0.00 46 1021.8
20260902055506 74 57 6.0 14.0 0.00 0.00 0.00 46 1021.8
20260902055006 74 63 6.0 14.0 0.00 0.00 0.00 46 1021.8
20260902054506 74 59 6.0 15.0 0.00 0.00 0.00 46 1021.8
20260902054006 74 52 5.0 15.0 0.00 0.00 0.00 46 1021.8
20260902053506 73 53 8.0 12.0 0.00 0.00 0.00 47 1021.8
20260902053006 73 48 6.0 12.0 0.00 0.00 0.00 47 1021.8
20260902052507 73 49 6.0 12.0 0.00 0.00 0.00 47 1021.8
20260902052006 73 47 7.0 15.0 0.00 0.00 0.00 48 1021.8
20260902051006 73 54 9.0 13.0 0.00 0.00 0.00 47 1021.8
20260902050506 73 53 7.0 13.0 0.00 0.00 0.00 48 1021.8
20260902050008 73 63 8.0 13.0 0.00 0.00 0.00 48 1021.8
20260902045006 73 64 8.0 13.0 0.00 0.00 0.00 49 1021.8
20260902044506 73 60 6.0 13.0 0.00 0.00 0.00 49 1021.8
20260902044006 73 55 8.0 12.0 0.00 0.00 0.00 49 1020.8
20260902043506 73 55 7.0 15.0 0.00 0.00 0.00 49 1020.8
20260902043006 73 57 5.0 15.0 0.00 0.00 0.00 49 1020.8
20260902042506 72 64 11.0 15.0 0.00 0.00 0.00 49 1020.8
20260902042006 72 68 6.0 15.0 0.00 0.00 0.00 50 1020.8
20260902041506 72 69 9.0 15.0 0.00 0.00 0.00 50 1020.8
20260902041006 72 74 9.0 17.0 0.00 0.00 0.00 50 1021.8
20260902040506 72 77 4.0 17.0 0.00 0.00 0.00 50 1021.8
20260902034006 72 68 7.0 11.0 0.00 0.00 0.00 51 1020.8
20260902033506 72 64 6.0 11.0 0.00 0.00 0.00 51 1020.8
20260902033006 72 68 7.0 11.0 0.00 0.00 0.00 51 1020.8
20260902032506 72 80 8.0 11.0 0.00 0.00 0.00 51 1020.8
20260902032006 72 93 7.0 11.0 0.00 0.00 0.00 51 1020.8
20260902031506 72 104 6.0 10.0 0.00 0.00 0.00 52 1020.8
20260902031006 72 107 6.0 10.0 0.00 0.00 0.00 51 1020.8
20260902030506 73 90 5.0 10.0 0.00 0.00 0.00 51 1020.8
20260902030006 73 74 6.0 10.0 0.00 0.00 0.00 50 1020.8
20260902025506 73 68 6.0 12.0 0.00 0.00 0.00 50 1021.8
20260902025006 73 63 4.0 12.0 0.00 0.00 0.00 50 1021.8
20260902024506 73 63 5.0 18.0 0.00 0.00 0.00 50 1021.8
20260902024006 73 59 10.0 18.0 0.00 0.00 0.00 50 1020.8
20260902022506 74 56 9.0 21.0 0.00 0.00 0.00 49 1021.8
20260902022006 74 56 14.0 21.0 0.00 0.00 0.00 49 1021.8
20260902021506 74 51 10.0 15.0 0.00 0.00 0.00 49 1021.8
20260902021005 74 57 9.0 14.0 0.00 0.00 0.00 49 1021.8
20260902020506 74 66 11.0 14.0 0.00 0.00 0.00 49 1021.8
20260902020006 74 56 9.0 15.0 0.00 0.00 0.00 49 1021.8
20260902015506 74 52 8.0 15.0 0.00 0.00 0.00 49 1020.8
20260902015006 74 56 7.0 12.0 0.00 0.00 0.00 48 1020.8
20260902014505 74 34 9.0 18.0 0.00 0.00 0.00 48 1020.8
20260902014006 74 14 10.0 18.0 0.00 0.00 0.00 48 1020.8
20260902013506 74 28 8.0 17.0 0.00 0.00 0.00 49 1020.8
20260902013006 74 25 9.0 17.0 0.00 0.00 0.00 49 1020.8
20260902012505 74 18 4.0 13.0 0.00 0.00 0.00 49 1021.8
20260902012006 74 18 6.0 15.0 0.00 0.00 0.00 50 1021.8
20260902011506 75 8 4.0 15.0 0.00 0.00 0.00 49 1021.8
20260902011006 75 342 10.0 14.0 0.00 0.00 0.00 50 1021.8
20260902010506 75 335 4.0 9.0 0.00 0.00 0.00 50 1021.8
20260902010006 75 5 2.0 14.0 0.00 0.00 0.00 51 1021.8
20260902005506 75 6 2.0 14.0 0.00 0.00 0.00 50 1021.8
20260902005006 74 2 4.0 11.0 0.00 0.00 0.00 52 1021.8
20260902004506 74 345 3.0 14.0 0.00 0.00 0.00 52 1021.8
20260902004006 73 342 9.0 14.0 0.00 0.00 0.00 53 1021.8
20260902003506 72 358 7.0 11.0 0.00 0.00 0.00 54 1021.8
20260902002505 71 25 5.0 10.0 0.00 0.00 0.00 57 1021.8
20260902002005 71 126 3.0 6.0 0.00 0.00 0.00 59 1021.8
20260902001006 71 94 1.0 6.0 0.00 0.00 0.00 59 1021.8
20260902000506 71 104 3.0 6.0 0.00 0.00 0.00 59 1021.8
20260902000006 71 80 2.0 4.0 0.00 0.00 0.00 59 1021.8
20260901234506 71 52 2.0 2.0 0.00 0.00 0.00 59 1021.8
20260901234005 71 67 1.0 3.0 0.00 0.00 0.00 59 1021.8
20260901233506 71 129 1.0 4.0 0.00 0.00 0.00 58 1021.8
20260901232505 72 165 2.0 4.0 0.00 0.00 0.00 58 1021.8
20260901232006 72 171 1.0 6.0 0.00 0.00 0.00 59 1021.8
20260901231006 72 274 2.0 4.0 0.00 0.00 0.00 59 1022.8
20260901225506 72 120 5.0 11.0 0.00 0.00 0.00 60 1021.8
20260901225005 71 108 5.0 9.0 0.00 0.00 0.00 61 1021.8
20260901224506 70 108 7.0 9.0 0.00 0.00 0.00 62 1021.8
20260901224006 70 136 1.0 5.0 0.00 0.00 0.00 63 1021.8
20260901223505 69 145 2.0 5.0 0.00 0.00 0.00 64 1021.8
20260901223006 69 33 3.0 4.0 0.00 0.00 0.00 65 1021.8
20260901222506 69 68 0.0 4.0 0.00 0.00 0.00 64 1021.8
20260901222005 69 97 1.0 6.0 0.00 0.00 0.00 65 1021.8
20260901221506 69 78 3.0 6.0 0.00 0.00 0.00 65 1021.8
20260901221006 69 83 0.0 4.0 0.00 0.00 0.00 65 1021.8
20260901220506 69 76 2.0 4.0 0.00 0.00 0.00 65 1021.8
20260901220012 69 27 2.0 3.0 0.00 0.00 0.00 64 1021.8
20260901215506 69 351 1.0 4.0 0.00 0.00 0.00 64 1021.8
20260901215005 69 340 2.0 4.0 0.00 0.00 0.00 64 1021.8
20260901214006 70 231 0.0 3.0 0.00 0.00 0.00 63 1020.8
20260901213505 70 154 2.0 6.0 0.00 0.00 0.00 63 1020.8
20260901213005 70 55 2.0 6.0 0.00 0.00 0.00 61 1020.8
20260901212506 70 76 3.0 6.0 0.00 0.00 0.00 61 1020.8
20260901212006 70 74 2.0 4.0 0.00 0.00 0.00 60 1020.8
20260901211506 70 67 3.0 4.0 0.00 0.00 0.00 61 1020.8
20260901211006 70 76 3.0 7.0 0.00 0.00 0.00 61 1020.8
20260901210505 70 77 3.0 7.0 0.00 0.00 0.00 61 1020.8
20260901210006 70 69 5.0 6.0 0.00 0.00 0.00 61 1020.8
20260901205505 70 74 3.0 6.0 0.00 0.00 0.00 61 1020.8
20260901205006 70 73 4.0 6.0 0.00 0.00 0.00 61 1020.8
20260901204506 70 73 4.0 6.0 0.00 0.00 0.00 60 1020.8
20260901204006 70 71 3.0 6.0 0.00 0.00 0.00 61 1021.8
20260901203506 70 62 3.0 5.0 0.00 0.00 0.00 60 1021.8
20260901203006 70 53 2.0 5.0 0.00 0.00 0.00 60 1021.8
20260901202006 71 66 3.0 5.0 0.00 0.00 0.00 61 1020.8
20260901201505 71 60 3.0 5.0 0.00 0.00 0.00 61 1020.8
20260901201006 71 73 3.0 4.0 0.00 0.00 0.00 61 1021.8
20260901200506 71 60 1.0 4.0 0.00 0.00 0.00 60 1021.8
20260901200006 71 42 2.0 4.0 0.00 0.00 0.00 60 1021.8
20260901195505 71 56 0.0 2.0 0.00 0.00 0.00 61 1020.8
20260901195006 71 47 2.0 4.0 0.00 0.00 0.00 60 1020.8
20260901194506 71 53 2.0 4.0 0.00 0.00 0.00 60 1020.8
20260901193005 71 40 2.0 4.0 0.00 0.00 0.00 60 1020.8
20260901192006 71 55 1.0 4.0 0.00 0.00 0.00 60 1020.8
20260901191005 71 57 1.0 2.0 0.00 0.00 0.00 60 1020.8
20260901190505 72 59 0.0 3.0 0.00 0.00 0.00 59 1020.8
20260901190006 72 45 2.0 3.0 0.00 0.00 0.00 59 1020.8
20260901185505 72 74 2.0 3.0 0.00 0.00 0.00 58 1020.8
20260901184506 73 103 0.0 4.0 0.00 0.00 0.00 57 1020.8
20260901184006 73 81 0.0 4.0 0.00 0.00 0.00 56 1020.8
20260901183505 73 53 3.0 4.0 0.00 0.00 0.00 55 1020.8
20260901182506 74 52 2.0 3.0 0.00 0.00 0.00 53 1020.8
20260901182006 74 62 2.0 3.0 0.00 0.00 0.00 53 1020.8
20260901181505 74 82 2.0 3.0 0.00 0.00 0.00 53 1020.8
20260901181006 75 92 2.0 3.0 0.00 0.00 0.00 53 1019.8
20260901180506 75 77 2.0 3.0 0.00 0.00 0.00 52 1019.8
20260901180005 76 55 2.0 3.0 0.00 0.00 0.00 51 1019.8
20260901175505 76 43 0.0 3.0 0.00 0.00 0.00 50 1018.8
20260901175006 77 62 2.0 3.0 0.00 0.00 0.00 49 1018.8
20260901174506 77 89 0.0 2.0 0.00 0.00 0.00 47 1018.8
20260901174008 78 79 1.0 2.0 0.00 0.00 0.00 47 1018.8
20260901173505 78 68 0.0 2.0 0.00 0.00 0.00 45 1018.8
20260901172505 80 56 0.0 3.0 0.00 0.00 0.00 43 1018.8
20260901172005 80 49 2.0 4.0 0.00 0.00 0.00 41 1018.8
20260901171505 81 68 3.0 4.0 0.00 0.00 0.00 40 1018.8
20260901171006 81 91 1.0 4.0 0.00 0.00 0.00 39 1019.8
20260901170505 82 131 3.0 4.0 0.00 0.00 0.00 39 1019.8
20260901170006 82 161 2.0 3.0 0.00 0.00 0.00 39 1019.8
20260901165505 83 347 1.0 3.0 0.00 0.00 0.00 38 1019.8
20260901165005 83 355 1.0 6.0 0.00 0.00 0.00 35 1019.8
20260901164505 83 354 3.0 6.0 0.00 0.00 0.00 34 1019.8
20260901164006 84 2 3.0 6.0 0.00 0.00 0.00 35 1019.8
20260901163005 84 2 4.0 6.0 0.00 0.00 0.00 34 1019.8
20260901162006 84 358 1.0 7.0 0.00 0.00 0.00 33 1019.8
20260901161506 84 12 3.0 6.0 0.00 0.00 0.00 34 1019.8
20260901160505 84 38 4.0 6.0 0.00 0.00 0.00 33 1019.8
20260901160006 85 44 3.0 6.0 0.00 0.00 0.00 33 1019.8
20260901155505 85 54 5.0 6.0 0.00 0.00 0.00 33 1019.8
20260901155005 85 49 4.0 6.0 0.00 0.00 0.00 33 1019.8
20260901154506 85 40 3.0 5.0 0.00 0.00 0.00 33 1019.8
20260901154006 85 42 2.0 6.0 0.00 0.00 0.00 33 1020.8
20260901153505 85 28 4.0 6.0 0.00 0.00 0.00 33 1020.8
20260901153005 85 13 2.0 6.0 0.00 0.00 0.00 33 1020.8
20260901152506 85 41 2.0 6.0 0.00 0.00 0.00 33 1019.8
20260901152005 85 74 4.0 5.0 0.00 0.00 0.00 33 1019.8
20260901151006 85 47 2.0 6.0 0.00 0.00 0.00 33 1019.8
20260901150505 85 54 4.0 8.0 0.00 0.00 0.00 33 1019.8